Showing default

EXPLORER 25 (INJUN-4), 932

Orbit data source: Space-Track

EXPLORER 25 (INJUN-4), 932 is a payload satellite owned by NASA LaRC (US) in LEO that was launched on Sat, 21 Nov 1964 UTC via an SCOUT X-4 launch vehicle from the Air Force Western Test Range (AFWTR). Payload-class satellites include a variety of spacecraft equipped with specific instruments for various scientific and technological missions. These include communications satellites like Starlink; space stations such as the ISS; scientific satellites like the Hubble; Earth observation satellites from companies like Planet Labs, Umbra, and HawkEye 360; GPS; miniature CubeSats for education and research; and military/defense satellites.

Loading next visibility...
Identifier
932, 1964-076B
Orbit
LEO
Country
Flag of USUS
Related business
Manufacturer
BENDX/UIA
Mission
Spacecraft
Bus & Motor
BENDIX UTILITY, Unknown motor
Mass
41 kg wet, 41 kg dry
Launch date (UTC)
1964-11-21 (61 years ago)
Launch vehicle
SCOUT X-4
Launch site
Air Force Western Test Range (AFWTR)
Object type
Payload
Rocket body
Debris
Shape & HBR
Unknown
Radar Cross Section
Medium (>0.1 m² and <1 m²)

Expand to show TLE details & history
Last TLE update: 1 day ago

TLE from 1 day ago
0 EXPLORER 25 (INJUN-4)
1 00932U 64076B   25305.41371232  .00001055  00000-0  36584-3 0  9995
2 00932  81.3424 193.7539 1120055  64.8931 306.4103 12.66885647790286
Epoch: 2025-11-01T09:55Z
TLE epoch observation values (Epoch: 2025-11-01T09:55:44.744Z)
Latitude
-0.00001°
Longitude
3.87332°
Altitude
950.142 km
Speed
7.586 km/s
True Right ascension
12h 55m 00s
True Declination
0° 00' 00"
Sunlit
Object was in daylight at epoch
Visualization orbit readout
Latitude
Unknown
Longitude
Unknown
Altitude
Unknown
Speed
Unknown
Apparent Right ascension
Unknown
Apparent Declination
Unknown
Sunlit
N/A
Visualization observer readout
Local Sidereal Time
06:03:39
Azimuth
Unknown
Elevation
Unknown
Doppler factor
Unknown
Orbital elements
Apogee altitude
2,262.261 km
Perigee altitude
521.672 km
Semi-major axis
7,770.104 km
Eccentricity
0.11201
Inclination
81.3424°
RAAN
193.7539°
Arg. of periapsis
64.8931°
True anomaly
295.22076°
Mean anomaly
306.4103°
Eccentric anomaly
300.90394°
Mean motion
3.16886 °/min
Orbital period
113.61 mins
BSTAR
0.00036584
Loading maneuver chart data...
Computing Atmospheric mass density...
Loading historical data...
Loading historical data...
Loading historical data...
Loading historical data...
Loading historical data...
Loading historical data...
Loading historical data...

Documentation

Showing up to 5 results
|